#timestamp,LO_Frequency,Hit 
1500490815.4,286046954.2,N
1500490835.2,286046954.7,N
1500490855.1,286046952.1,N
1500490856.0,286046952.1,N
1500490875.8,286046954.0,N
1500490895.6,286046956.0,N
1500490915.5,286046957.6,N
1500490935.3,286046953.6,N
1500490955.1,286046958.0,N
1500490975.9,286046957.5,N
1500490995.7,286046955.2,N
1500491015.5,286046955.4,N
1500491035.4,286046958.0,N
1500491055.2,286046957.3,N
1500491075.0,286046958.0,N
1500491075.9,286046958.0,N
1500491095.8,286046956.4,N
1500491115.6,286046958.0,N
1500491135.4,286046956.8,N
1500491155.3,286046955.4,N
1500491175.1,286046958.0,N
1500491176.0,286046958.0,N
1500491195.8,286046957.8,N
1500491215.7,286046957.6,N
1500491235.5,286046956.3,N
1500491255.3,286046953.7,N
1500491275.2,286046955.7,N
1500491295.9,286046955.3,N
1500491315.7,286046959.1,N
1500491335.6,286046961.2,N
1500491355.4,286046959.0,N
1500491375.2,286046961.0,N
1500491395.1,286046960.7,N
1500491396.0,286046960.7,N
1500491415.8,286046961.2,N
1500491435.6,286046962.7,N
1500491455.5,286046961.0,N
1500491475.3,286046960.6,N
1500491495.1,286046960.6,N
1500491515.8,286046959.3,N
1500491535.7,286046960.0,N
1500491555.5,286046960.8,N
1500491575.3,286046957.1,N
1500491595.2,286046959.5,N
1500491615.0,286046959.2,N
1500491615.9,286046959.2,N
1500491635.7,286046956.9,N
1500491655.6,286046956.9,N
1500491675.4,286046956.7,N
1500491695.2,286046959.6,N
1500491715.1,286046959.4,N
1500491716.0,286046959.4,N
1500491735.8,286046958.1,N
1500491755.6,286046960.8,N
1500491775.5,286046956.7,N
1500491795.3,286046956.8,N
1500491815.1,286046956.5,N
1500491835.9,286046961.2,N
1500491855.7,286046958.6,N
1500491875.5,286046956.6,N
1500491895.4,286046958.1,N
1500491915.2,286046961.0,N
1500491935.0,286046960.3,N
1500491935.9,286046960.3,N
1500491955.8,286046960.0,N
1500491975.6,286046961.2,N
1500491995.4,286046960.5,N
1500492015.3,286046958.5,N
1500492035.1,286046960.8,N
1500492036.0,286046960.8,N
1500492055.8,286046960.5,N
1500492075.7,286046958.2,N
1500492095.5,286046962.6,N
1500492115.3,286046964.1,N
1500492135.1,286046962.0,N
1500492155.9,286046963.5,N
1500492175.7,286046961.3,N
1500492195.5,286046961.4,N
1500492215.4,286046961.5,N
1500492235.2,286046964.3,N
1500492255.0,286046964.0,N
1500492255.9,286046964.0,N
1500492275.8,286046964.4,N
1500492295.6,286046961.3,N
1500492315.4,286046964.2,N
1500492335.3,286046963.2,N
1500492355.1,286046963.4,N
1500492375.8,286046964.3,N
1500492395.7,286046965.8,N
1500492415.5,286046965.6,N
1500492435.3,286046966.0,N
1500492455.2,286046963.7,N
1500492475.0,286046963.2,N
1500492475.9,286046963.2,N
1500492495.7,286046965.4,N
1500492515.6,286046964.7,N
1500492535.4,286046965.2,N
1500492555.2,286046964.1,N
1500492575.1,286046963.0,N
1500492576.0,286046963.0,N
1500492595.8,286046963.0,N
1500492615.6,286046965.3,N
1500492635.5,286046965.1,N
1500492655.3,286046965.7,N
1500492675.1,286046965.5,N
1500492695.9,286046965.9,N
1500492715.7,286046965.4,N
1500492735.5,286046965.1,N
1500492755.4,286046965.1,N
1500492775.2,286046964.9,N
1500492795.0,286046966.0,N
1500492795.9,286046966.0,N
1500492815.8,286046965.5,N
1500492835.6,286046965.7,N
1500492855.4,286046963.0,N
1500492875.3,286046964.7,N
1500492895.1,286046968.6,N
1500492896.0,286046968.6,N
1500492915.8,286046969.5,N
1500492935.7,286046970.1,N
1500492955.5,286046968.3,N
1500492975.3,286046966.1,N
1500492995.2,286046966.5,N
1500493015.7,286046969.1,N
1500493035.6,286046968.0,N
1500493055.4,286046968.4,N
1500493075.2,286046969.9,N
1500493095.1,286046973.8,N
1500493096.0,286046973.8,N
1500493115.8,286046971.4,N
1500493135.6,286046969.5,N
1500493155.5,286046972.3,N
1500493175.3,286046969.3,N
1500493195.1,286046969.4,N
1500493215.9,286046972.0,N
1500493235.7,286046971.8,N
1500493255.5,286046973.5,N
1500493275.3,286046971.0,N
1500493295.2,286046973.1,N
1500493315.0,286046971.2,N
1500493315.9,286046971.2,N
1500493335.7,286046972.4,N
1500493355.6,286046971.5,N
1500493375.4,286046973.9,N
1500493395.2,286046973.0,N
1500493415.1,286046975.3,N
1500493416.0,286046975.3,N
1500493435.8,286046974.9,N
1500493455.6,286046972.9,N
1500493475.5,286046975.6,N
1500493495.3,286046975.6,N
1500493515.1,286046972.9,N
1500493535.9,286046973.3,N
1500493555.7,286046973.2,N
1500493575.5,286046975.4,N
1500493595.4,286046972.8,N
1500493615.2,286046974.6,N
1500493635.0,286046974.1,N
1500493635.9,286046974.1,N
1500493655.8,286046974.8,N
1500493675.6,286046974.5,N
1500493695.4,286046976.7,N
1500493715.3,286046976.9,N
1500493735.1,286046978.8,N
1500493755.8,286046975.9,N
1500493775.7,286046975.7,N
1500493795.5,286046978.8,N
1500493815.3,286046975.9,N
1500493835.2,286046976.1,N
1500493855.9,286046978.3,N
1500493875.7,286046978.0,N
1500493895.6,286046978.8,N
1500493915.4,286046975.8,N
1500493935.2,286046976.2,N
1500493955.1,286046975.9,N
1500493956.0,286046975.9,N
1500493975.8,286046978.8,N
1500493995.6,286046978.0,N
1500494015.5,286046978.0,N
1500494035.3,286046978.7,N
1500494055.1,286046980.2,N
1500494075.9,286046977.6,N
1500494095.7,286046980.4,N
1500494115.5,286046980.4,N
1500494135.3,286046980.1,N
1500494155.2,286046980.0,N
1500494175.0,286046980.3,N
1500494175.9,286046980.3,N
1500494195.7,286046977.9,N
1500494215.6,286046980.2,N
1500494235.4,286046979.1,N
1500494255.2,286046979.9,N
1500494275.1,286046979.1,N
1500494276.0,286046979.1,N
1500494295.8,286046979.1,N
1500494315.6,286046979.3,N
1500494335.5,286046979.3,N
1500494355.3,286046981.7,N
1500494375.1,286046980.9,N
1500494395.9,286046980.9,N
